Find Starlink 11481

NORAD ID: 62230 Int'l Des: 2024-231 Owner: SPXS Country: US Constellation: starlink operational
LEOCIRCULAR

当前视图

正在加载3D地球...

About Starlink 11481

Starlink 11481 (NORAD 62230) is a starlink constellation satellite (v2 mini d2c) launched Dec 5, 2024 by SPXS of US. It operates in LEO, CIRCULAR orbit with a mass of 960.00 kg.

关于 Starlink 11481

正在加载描述...

即将过境

Passes for default location (London). Set your location on the main map for personalized predictions.

高度历史

Loading altitude history...

两行轨道根数

1 62230U 24231N 26195.49940323 .00084742 00000-0 69585-3 0 9993
2 62230 53.1579 196.4868 0001357 85.6969 274.4204 15.69756483 93320
Epoch: Jul 14, 2026 • Age: 11 hours

当前状态

高度 359.2 km
远地点 / 近地点 N/A
速度 7.70 km/s
星下点 15.04°N, 68.41°W
发射日期 Dec 5, 2024
运行时间 1.6 years
类型 internet

技术详情

分类 Payload
质量 960.00 kg
干质量 910.00 kg
总质量 960.00 kg
长度 0.30 m
直径 4.10 m
跨度 29.00 m
形状 Box + pan
制造商 SPXS
平台类型 Starlink V2MD
阶段状态 In Orbit
所有者/国家 SPXS/US

Most Searched